EW2470 Weather Reports


time (UTC)temp
F
wind
direction
speed
knots
gust
knots
rain 1hr
in
rain 24hr
in
rain mn
in
humidity
%
barometer
mb
20260505011017 65 0.0 0.0 0.00 0.00 0.00 52 1013.5
20260505010016 67 0.0 0.0 0.00 0.00 0.00 50 1013.3
20260505005017 68 0.0 0.0 0.00 0.00 0.00 46 1013.2
20260505004017 69 0.0 0.0 0.00 0.00 0.00 45 1013.2
20260505003017 71 0.0 0.0 0.00 0.00 0.00 44 1013.1
20260505002016 72 0.0 0.0 0.00 0.00 0.00 40 1013.0
20260505001017 73 0.0 0.0 0.00 0.00 0.00 38 1013.0
20260505000017 73 0.0 0.9 0.00 0.00 0.00 38 1013.0
20260504235017 74 180 0.9 3.5 0.00 0.00 0.00 37 1013.1
20260504234020 74 180 1.7 4.3 0.00 0.00 0.00 37 1013.0
20260504233017 75 180 1.7 5.2 0.00 0.00 0.00 35 1013.1
20260504232018 75 180 2.6 7.8 0.00 0.00 0.00 34 1013.2
20260504231017 76 180 1.7 5.2 0.00 0.00 0.00 34 1013.1
20260504230017 76 180 2.6 6.1 0.00 0.00 0.00 33 1013.1
20260504225057 77 180 3.5 7.8 0.00 0.00 0.00 33 1013.0
20260504224017 77 180 2.6 5.2 0.00 0.00 0.00 34 1013.0
20260504223016 78 180 0.9 4.3 0.00 0.00 0.00 31 1012.9
20260504222017 79 180 1.7 4.3 0.00 0.00 0.00 33 1013.1
20260504221016 79 180 1.7 4.3 0.00 0.00 0.00 31 1013.0
20260504220016 79 113 2.6 6.1 0.00 0.00 0.00 32 1013.1
20260504215036 79 180 2.6 7.8 0.00 0.00 0.00 31 1013.0
20260504214037 79 45 1.7 3.5 0.00 0.00 0.00 31 1013.0
20260504213016 80 113 2.6 7.0 0.00 0.00 0.00 29 1013.0
20260504212016 80 180 2.6 7.8 0.00 0.00 0.00 31 1013.1
20260504211017 81 180 1.7 4.3 0.00 0.00 0.00 32 1013.1
20260504210016 80 225 1.7 3.5 0.00 0.00 0.00 34 1013.2
20260504205016 79 135 1.7 4.3 0.00 0.00 0.00 34 1013.2
20260504204016 80 68 2.6 7.0 0.00 0.00 0.00 32 1013.2
20260504203036 80 158 2.6 6.1 0.00 0.00 0.00 34 1013.4
20260504202017 80 113 2.6 7.0 0.00 0.00 0.00 31 1013.5
20260504201016 80 113 1.7 6.1 0.00 0.00 0.00 31 1013.6
20260504200036 80 248 2.6 8.7 0.00 0.00 0.00 30 1013.7
20260504195016 80 135 1.7 5.2 0.00 0.00 0.00 31 1013.9
20260504194036 81 158 1.7 6.1 0.00 0.00 0.00 35 1014.1
20260504193017 81 248 1.7 5.2 0.00 0.00 0.00 33 1014.2
20260504192017 80 135 2.6 6.1 0.00 0.00 0.00 32 1014.3
20260504191056 80 135 1.7 3.5 0.00 0.00 0.00 34 1014.5
20260504190017 80 225 0.9 2.6 0.00 0.00 0.00 34 1014.6
20260504185016 79 45 0.9 1.7 0.00 0.00 0.00 37 1014.8
20260504184018 78 293 0.9 3.5 0.00 0.00 0.00 37 1015.0
20260504183016 77 45 1.7 3.5 0.00 0.00 0.00 33 1015.1
20260504182017 77 90 1.7 2.6 0.00 0.00 0.00 31 1015.1
20260504181016 79 90 1.7 4.3 0.00 0.00 0.00 33 1015.3
20260504180016 80 225 0.9 3.5 0.00 0.00 0.00 35 1015.2
20260504175016 79 225 0.9 3.5 0.00 0.00 0.00 34 1015.3
20260504174017 78 135 0.9 2.6 0.00 0.00 0.00 35 1015.5
20260504173016 76 135 1.7 5.2 0.00 0.00 0.00 39 1015.6
20260504172016 77 135 0.9 2.6 0.00 0.00 0.00 33 1015.7
20260504171017 77 158 1.7 3.5 0.00 0.00 0.00 38 1015.8
20260504170116 76 45 1.7 2.6 0.00 0.00 0.00 39 1015.8
20260504151017 72 68 0.9 2.6 0.00 0.00 0.00 41 1017.0
20260504141017 69 158 2.6 3.5 0.00 0.00 0.00 48 1017.4
20260504081017 45 0.0 1.7 0.00 0.00 0.00 89 1016.5
20260504050020 48 0.0 0.0 0.00 0.00 0.00 86 1017.1
20260504045017 48 0.0 0.0 0.00 0.00 0.00 86 1017.2
20260504044017 48 0.0 0.0 0.00 0.00 0.00 86 1017.2
20260504043017 49 0.0 0.0 0.00 0.00 0.00 85 1017.1
20260504042018 49 0.0 0.0 0.00 0.00 0.00 85 1017.1
20260504041057 49 0.0 0.0 0.00 0.00 0.00 84 1017.1
20260504040017 49 0.0 0.0 0.00 0.00 0.00 84 1017.0
20260504035017 50 0.0 0.0 0.00 0.00 0.00 83 1016.9
20260504034017 50 0.0 0.0 0.00 0.00 0.00 83 1017.0
20260504033017 50 0.0 0.0 0.00 0.00 0.00 83 1017.0
20260504032017 51 0.0 0.0 0.00 0.00 0.00 82 1017.0
20260504031017 51 0.0 0.0 0.00 0.00 0.00 81 1016.9
20260504030017 51 0.0 0.0 0.00 0.00 0.00 81 1016.9
20260504025037 52 0.0 0.0 0.00 0.00 0.00 80 1016.9
20260504024059 52 0.0 0.0 0.00 0.00 0.00 79 1016.8
20260504023017 53 0.0 0.0 0.00 0.00 0.00 79 1016.7
20260504022019 54 0.0 0.0 0.00 0.00 0.00 78 1016.6
20260504021016 54 0.0 0.9 0.00 0.00 0.00 76 1016.4
20260504020017 55 0.0 0.0 0.00 0.00 0.00 75 1016.3
20260504015019 56 0.0 0.0 0.00 0.00 0.00 73 1016.2
20260504014017 56 0.0 0.0 0.00 0.00 0.00 71 1016.0
20260504013017 57 0.0 0.0 0.00 0.00 0.00 71 1016.0